Location: ????????
(55.0808°N, 38.5463°E)
Time: 03:03:14
(UTC+00:00)

Nimbus 3 Rocket - Pass Details

Date: 21 September 2024
Orbit: 1072 x 1131 km, 99.9° (Epoch: 03 October)

Event Time Altitude Azimuth Distance (km) Brightness Sun altitude
Rises 01:35:18 0° 24° (NNE) 3,930 8.9 -14.0°
Maximum altitude 01:41:40 10° 340° (NNW) 2,953 7.5 -13.1°
Drops below altitude 10° 01:41:42 10° 339° (NNW) 2,953 7.5 -13.1°
Enters shadow 01:47:20 - 298° (WNW) 3,719 7.6 -12.4°
